+ View the NASA Portal
+ Center for Near-Earth Object Studies
IMPORTANT:
The SSD Announcement email list is now available. Major changes are coming in the near future, including possible hostname and/or URL changes. To be notified of such changes, subscribe to this email list.
Please visit
this page
for more details.
Don't show this message again
JPL Small-Body Database Browser
Search:
[
help
]
32287 (2000 PF26)
Classification:
Main-belt Asteroid
SPK-ID:
2032287
[
Ephemeris
|
Orbit Diagram
|
Orbital Elements
|
Mission Design
|
Physical Parameters
|
Discovery Circumstances
|
Close-Approach Data
]
[ show orbit diagram ]
Orbital Elements at Epoch 2458600.5 (2019-Apr-27.0) TDB
Reference:
JPL 21
(heliocentric ecliptic J2000)
Element
Value
Uncertainty (1-sigma)
Units
e
.1281733772639308
6.9483e-08
a
2.473872566370127
1.2852e-08
au
q
2.15678796461788
1.6756e-07
au
i
10.15537924033271
5.7369e-06
deg
node
69.98052750962091
4.2783e-05
deg
peri
67.04864727238521
5.8289e-05
deg
M
142.0521033583442
3.9346e-05
deg
t
p
2458039.697964026238
(2017-Oct-13.19796403)
0.00015329
TDB
period
1421.230155538525
3.89
1.1075e-05
3.032e-08
d
yr
n
.253301689805189
1.9739e-09
deg/d
Q
2.790957168122374
1.4499e-08
au
Orbit Determination Parameters
# obs. used (total)
1097
data-arc span
14383 days (39.38 yr)
first obs. used
1979-02-25
last obs. used
2018-07-13
planetary ephem.
DE431
SB-pert. ephem.
SB431-N16
condition code
0
norm. resid. RMS
.51701
source
ORB
producer
Otto Matic
solution date
2018-Oct-03 18:59:31
Additional Information
Earth MOID
= 1.19464 au
Jupiter MOID
= 2.30789 au
T_jup
= 3.450
[ show covariance matrix ]
[
Ephemeris
|
Orbit Diagram
|
Orbital Elements
|
Mission Design
|
Physical Parameters
|
Discovery Circumstances
|
Close-Approach Data
]
Physical Parameter Table
Parameter
Symbol
Value
Units
Sigma
Reference
Notes
absolute magnitude
H
14.2
n/a
MPO299188
diameter
diameter
5.402
km
0.031
urn:nasa:pds:neowise_diameters_albedos::2.0[mainbelt] (http://adsabs.harvard.edu/abs/2011ApJ...741...68M)
geometric albedo
albedo
0.123
0.007
urn:nasa:pds:neowise_diameters_albedos::2.0[mainbelt] (http://adsabs.harvard.edu/abs/2011ApJ...741...68M)
32287 (2000 PF26)
Discovered 2000-Aug-05 by JPL/NEAT at Haleakala
Reference:
20011130/Numbers.arc
Last Updated:
2004-04-19
[ hide close-approach data ]
Close-Approach Data
...sorted by
Date/Time (TDB)
Date/Time (TDB)
Time Uncertainty
(days_HH:MM)
Body
Nominal Distance (au)
Minimum Distance (au)
Maximum Distance (au)
V-relative (km/s)
V-infinity (km/s)
JD (TDB)
Time Uncertainty (minutes)
Semi-major axis (km)
Semi-minor axis (km)
range-LOV angle (deg)
N-sigma
BP
Orbit Ref.
Reference
Modified
2030-Dec-04 18:08
< 00:01
Amphi
0.0445241553967303
0.0445226920408495
0.0445256188845709
3.84716947737053
3.84716944380945
2462840.255350017
0.833920155393397
174.562278163393
47.2595974182939
70.6980855108334
133538.044305952
T
21
CATAB v2.0e-lin.ifort 2018-Oct-03 18:59:35
2018-Dec-17 16:18
Alternate Designations
2000 PF26
= 1979 DX = 1999 KB14
[
Ephemeris
|
Orbit Diagram
|
Orbital Elements
|
Mission Design
|
Physical Parameters
|
Discovery Circumstances
|
Close-Approach Data
]
2019-Dec-16 07:51 UT
(server date/time)
Site Manager:
Ryan S. Park
Webmaster
:
Alan B. Chamberlin